This is the latest recevied weather packets stored in our database for station/object KN6ZYR. If no packets are shown the sender has not sent any weather packets the latest 10 day(s).
| Time | Temp. | Humidity | Pressure | Rain* | Wind** | Luminosity | Snow |
|---|---|---|---|---|---|---|---|
| 1778043835 | 11.67° C | 68% | 1019.5 hPa | 0 mm | - | 0 W/m² | - |
| 1778043532 | 11.67° C | 67% | 1019.5 hPa | 0 mm | - | 0 W/m² | - |
| 1778043228 | 12.78° C | 65% | 1019.5 hPa | 0 mm | - | 0 W/m² | - |
| 1778042925 | 12.22° C | 65% | 1019.5 hPa | 0 mm | - | 0 W/m² | - |
| 1778042623 | 11.67° C | 67% | 1019.2 hPa | 0 mm | - | 0 W/m² | - |
| 1778042320 | 12.22° C | 68% | 1019.1 hPa | 0 mm | - | 0 W/m² | - |
| 1778042017 | 12.22° C | 68% | 1019 hPa | 0 mm | - | 0 W/m² | - |
| 1778041715 | 12.78° C | 67% | 1019 hPa | 0 mm | - | 0 W/m² | - |
| 1778041414 | 12.78° C | 67% | 1019 hPa | 0 mm | - | 0 W/m² | - |
| 1778041113 | 12.78° C | 65% | 1018.5 hPa | 0 mm | - | 0 W/m² | - |
| 1778040809 | 12.78° C | 64% | 1018.8 hPa | 0 mm | - | 0 W/m² | - |
| 1778040507 | 12.78° C | 63% | 1018.8 hPa | 0 mm | - | 0 W/m² | - |
| 1778040203 | 12.78° C | 66% | 1018.7 hPa | 0 mm | - | 0 W/m² | - |
| 1778039900 | 12.78° C | 67% | 1018.4 hPa | 0 mm | - | 0 W/m² | - |
| 1778039597 | 12.78° C | 65% | 1018.4 hPa | 0 mm | - | 0 W/m² | - |
| 1778039294 | 13.33° C | 64% | 1018.4 hPa | 0 mm | - | 0 W/m² | - |
| 1778038991 | 13.33° C | 63% | 1018.2 hPa | 0 mm | - | 0 W/m² | - |
| 1778038688 | 13.33° C | 61% | 1018 hPa | 0 mm | - | 0 W/m² | - |
| 1778038385 | 13.33° C | 62% | 1018 hPa | 0 mm | - | 0 W/m² | - |
| 1778038082 | 13.89° C | 62% | 1018 hPa | 0 mm | - | 0 W/m² | - |
| 1778037779 | 13.89° C | 60% | 1017.9 hPa | 0 mm | - | 0 W/m² | - |
| 1778037475 | 13.89° C | 59% | 1018 hPa | 0 mm | - | 0 W/m² | - |
| 1778037173 | 13.89° C | 57% | 1017.6 hPa | 0 mm | - | 0 W/m² | - |
| 1778036871 | 14.44° C | 55% | 1017.6 hPa | 0 mm | - | 0 W/m² | - |
| 1778036569 | 14.44° C | 54% | 1017.4 hPa | 0 mm | - | 0 W/m² | - |
* Rain latest hour (hover to see other rain measurements)
** Current wind speed in m/s (hover to see current wind gust speed)